When you browse on this site, cookies collect data to enhance your experience and personalize the content and advertising you see.
Visit our Privacy Policy to learn more. By continuing to use the site, you agree to this use of cookies and data.
  • In Romania
  • List of Countries
  • For 7 days
  • Water Temperature
  • Satellite Maps
  • Weather Map
  • Weather Widgets
  • user-avatar
    Login

    Hourly Weather Luanda

    Today, 22 January, Tuesday

    Time Temperature Precipitation Wind Pressure Humidity
    00:00 +28°C° 0 mm 2 mps 754 mmHg 79%
    01:00 +28°C° 0 mm 2 mps 754 mmHg 80%
    02:00 +28°C° 0 mm 2 mps 754 mmHg 81%
    03:00 +28°C° 0 mm 2 mps 754 mmHg 82%
    04:00 +28°C° 0 mm 2 mps 754 mmHg 84%
    05:00 +28°C° 0 mm 2 mps 754 mmHg 83%
    06:00 +28°C° 0 mm 2 mps 754 mmHg 83%
    07:00 +28°C° 0 mm 2 mps 755 mmHg 82%
    08:00 +29°C° 0 mm 2 mps 755 mmHg 77%
    09:00 +30°C° 0 mm 2 mps 755 mmHg 71%
    10:00 +31°C° 0 mm 2 mps 755 mmHg 66%
    11:00 +33°C° 0 mm 3 mps 755 mmHg 62%
    12:00 +34°C° 0 mm 3 mps 754 mmHg 58%
    13:00 +35°C° 0 mm 4 mps 754 mmHg 55%
    14:00 +34°C° 0 mm 5 mps 753 mmHg 55%
    15:00 +34°C° 0 mm 5 mps 753 mmHg 56%
    16:00 +34°C° 0 mm 6 mps 752 mmHg 56%
    17:00 +33°C° 0 mm 5 mps 752 mmHg 62%
    18:00 +30°C° 0 mm 5 mps 753 mmHg 68%
    19:00 +29°C° 0 mm 5 mps 753 mmHg 74%
    20:00 +29°C° 0 mm 4 mps 754 mmHg 75%
    21:00 +29°C° 0 mm 4 mps 754 mmHg 77%
    22:00 +28°C° 0 mm 4 mps 755 mmHg 79%
    23:00 +28°C° 0 mm 3 mps 755 mmHg 80%

    Tomorrow, 23 January, Wednesday

    Time Temperature Precipitation Wind Pressure Humidity
    00:00 +28°C° 0 mm 3 mps 755 mmHg 81%
    01:00 +28°C° 0 mm 3 mps 754 mmHg 82%
    02:00 +28°C° 0 mm 3 mps 754 mmHg 82%
    03:00 +28°C° 0 mm 2 mps 754 mmHg 82%
    04:00 +28°C° 0 mm 2 mps 754 mmHg 83%
    05:00 +28°C° 0 mm 2 mps 754 mmHg 82%
    06:00 +28°C° 0 mm 2 mps 754 mmHg 81%
    07:00 +28°C° 0 mm 2 mps 755 mmHg 80%
    08:00 +29°C° 0 mm 3 mps 755 mmHg 77%
    09:00 +29°C° 0 mm 3 mps 755 mmHg 73%
    10:00 +30°C° 0 mm 3 mps 756 mmHg 70%
    11:00 +30°C° 0.1 mm 3 mps 755 mmHg 70%
    12:00 +30°C° 0.1 mm 3 mps 754 mmHg 70%
    13:00 +30°C° 0.1 mm 4 mps 754 mmHg 71%
    14:00 +29°C° 0 mm 3 mps 753 mmHg 72%
    15:00 +28°C° 0 mm 3 mps 752 mmHg 74%
    16:00 +28°C° 0 mm 3 mps 752 mmHg 75%
    17:00 +28°C° 0 mm 3 mps 752 mmHg 76%
    18:00 +27°C° 0 mm 3 mps 752 mmHg 76%
    19:00 +27°C° 0 mm 2 mps 752 mmHg 76%
    20:00 +27°C° 0 mm 2 mps 753 mmHg 78%
    21:00 +27°C° 0 mm 2 mps 754 mmHg 79%
    22:00 +26°C° 0 mm 1 mps 754 mmHg 81%
    23:00 +26°C° 0 mm 1 mps 754 mmHg 82%

    Day after tomorrow, 24 January, Thursday

    Time Temperature Precipitation Wind Pressure Humidity
    00:00 +26°C° 0 mm 1 mps 753 mmHg 84%
    01:00 +26°C° 0 mm 2 mps 753 mmHg 85%
    02:00 +26°C° 0 mm 2 mps 753 mmHg 86%
    03:00 +25°C° 0 mm 2 mps 752 mmHg 87%
    04:00 +25°C° 0 mm 2 mps 752 mmHg 88%
    05:00 +26°C° 0 mm 2 mps 752 mmHg 87%
    06:00 +26°C° 0 mm 2 mps 753 mmHg 86%
    07:00 +26°C° 0 mm 2 mps 753 mmHg 84%
    08:00 +28°C° 0 mm 1 mps 753 mmHg 76%
    09:00 +30°C° 0 mm 1 mps 753 mmHg 67%
    10:00 +30°C° 0 mm 0 mps 754 mmHg 59%
    11:00 +34°C° 0 mm 2 mps 753 mmHg 56%
    12:00 +35°C° 0 mm 3 mps 752 mmHg 53%
    13:00 +35°C° 0 mm 5 mps 752 mmHg 51%
    14:00 +35°C° 0 mm 5 mps 751 mmHg 54%
    15:00 +34°C° 0 mm 5 mps 750 mmHg 57%
    16:00 +33°C° 0 mm 5 mps 749 mmHg 60%
    17:00 +32°C° 0 mm 5 mps 750 mmHg 64%
    18:00 +30°C° 0 mm 5 mps 750 mmHg 68%
    19:00 +29°C° 0 mm 4 mps 751 mmHg 72%
    20:00 +29°C° 0 mm 4 mps 751 mmHg 74%
    21:00 +29°C° 0 mm 3 mps 752 mmHg 76%
    22:00 +28°C° 0 mm 3 mps 753 mmHg 77%
    23:00 +28°C° 0 mm 3 mps 753 mmHg 78%

    25 January, Friday

    Time Temperature Precipitation Wind Pressure Humidity
    00:00 +28°C° 0 mm 3 mps 752 mmHg 79%
    01:00 +28°C° 0 mm 2 mps 752 mmHg 80%
    02:00 +28°C° 0.1 mm 2 mps 752 mmHg 80%
    03:00 +28°C° 0.1 mm 2 mps 752 mmHg 80%
    04:00 +28°C° 0.1 mm 2 mps 752 mmHg 79%
    05:00 +28°C° 0.1 mm 2 mps 752 mmHg 79%
    06:00 +28°C° 0.1 mm 2 mps 753 mmHg 79%
    07:00 +28°C° 0.1 mm 2 mps 753 mmHg 79%
    08:00 +29°C° 0 mm 2 mps 753 mmHg 76%
    09:00 +29°C° 0 mm 2 mps 754 mmHg 72%
    10:00 +30°C° 0 mm 1 mps 754 mmHg 69%
    11:00 +31°C° 0 mm 2 mps 753 mmHg 64%
    12:00 +32°C° 0 mm 2 mps 752 mmHg 59%
    13:00 +34°C° 0 mm 3 mps 752 mmHg 54%
    14:00 +34°C° 0 mm 3 mps 751 mmHg 55%
    15:00 +34°C° 0 mm 4 mps 750 mmHg 56%
    16:00 +34°C° 0 mm 5 mps 750 mmHg 56%
    17:00 +33°C° 0 mm 5 mps 750 mmHg 62%
    18:00 +32°C° 0 mm 5 mps 751 mmHg 68%
    19:00 +29°C° 0 mm 4 mps 751 mmHg 74%
    20:00 +29°C° 0 mm 4 mps 752 mmHg 75%
    21:00 +29°C° 0 mm 4 mps 753 mmHg 76%
    22:00 +28°C° 0 mm 3 mps 754 mmHg 78%
    23:00 +28°C° 0 mm 3 mps 753 mmHg 79%

    26 January, Saturday

    Time Temperature Precipitation Wind Pressure Humidity
    00:00 +28°C° 0 mm 2 mps 753 mmHg 80%
    01:00 +28°C° 0 mm 2 mps 753 mmHg 81%
    02:00 +28°C° 0 mm 2 mps 753 mmHg 81%
    03:00 +28°C° 0 mm 2 mps 753 mmHg 82%
    04:00 +28°C° 0 mm 1 mps 752 mmHg 83%
    05:00 +28°C° 0 mm 2 mps 753 mmHg 82%
    06:00 +28°C° 0 mm 2 mps 753 mmHg 81%
    07:00 +28°C° 0 mm 2 mps 754 mmHg 81%
    08:00 +29°C° 0.1 mm 2 mps 754 mmHg 77%
    09:00 +29°C° 0.1 mm 2 mps 754 mmHg 72%
    10:00 +30°C° 0.1 mm 2 mps 755 mmHg 68%
    11:00 +31°C° 0 mm 2 mps 754 mmHg 64%
    12:00 +33°C° 0 mm 3 mps 754 mmHg 60%
    13:00 +34°C° 0 mm 3 mps 753 mmHg 56%
    14:00 +34°C° 0 mm 4 mps 753 mmHg 57%
    15:00 +34°C° 0 mm 4 mps 752 mmHg 57%
    16:00 +34°C° 0 mm 4 mps 752 mmHg 57%
    17:00 +33°C° 0 mm 4 mps 752 mmHg 62%
    18:00 +30°C° 0 mm 4 mps 753 mmHg 67%
    19:00 +29°C° 0 mm 4 mps 753 mmHg 73%
    20:00 +29°C° 0 mm 4 mps 754 mmHg 74%
    21:00 +29°C° 0 mm 4 mps 754 mmHg 76%
    22:00 +28°C° 0 mm 4 mps 754 mmHg 77%
    23:00 +28°C° 0 mm 4 mps 754 mmHg 78%

    27 January, Sunday

    Time Temperature Precipitation Wind Pressure Humidity
    00:00 +28°C° 0 mm 4 mps 754 mmHg 79%
    01:00 +28°C° 0 mm 3 mps 753 mmHg 80%
    02:00 +28°C° 0 mm 3 mps 753 mmHg 80%
    03:00 +28°C° 0 mm 2 mps 753 mmHg 81%
    04:00 +28°C° 0 mm 2 mps 753 mmHg 81%
    05:00 +28°C° 0.1 mm 2 mps 753 mmHg 81%
    06:00 +28°C° 0.1 mm 2 mps 754 mmHg 81%
    07:00 +28°C° 0.1 mm 2 mps 754 mmHg 81%
    08:00 +29°C° 0 mm 2 mps 754 mmHg 76%
    09:00 +30°C° 0 mm 1 mps 754 mmHg 70%
    10:00 +31°C° 0 mm 1 mps 755 mmHg 64%
    11:00 +32°C° 0 mm 2 mps 754 mmHg 60%
    12:00 +34°C° 0 mm 2 mps 753 mmHg 56%
    13:00 +35°C° 0 mm 3 mps 752 mmHg 51%
    14:00 +34°C° 0 mm 4 mps 752 mmHg 54%
    15:00 +34°C° 0 mm 4 mps 751 mmHg 57%
    16:00 +33°C° 0 mm 5 mps 751 mmHg 59%
    17:00 +32°C° 0 mm 4 mps 751 mmHg 64%
    18:00 +30°C° 0 mm 4 mps 751 mmHg 69%
    19:00 +29°C° 0 mm 4 mps 752 mmHg 74%
    20:00 +29°C° 0 mm 3 mps 752 mmHg 75%
    21:00 +29°C° 0 mm 3 mps 753 mmHg 76%
    22:00 +28°C° 0 mm 2 mps 753 mmHg 77%
    23:00 +28°C° 0 mm 2 mps 753 mmHg 77%
    Show more